Content
SEND FEEDBACK

Daily
Averages
Monthly
Summary
United States of America

MUSKEGON, MICHIGAN


Home > North America > United States > Michigan
Elevation: 628 feet     Latitude: 43 10N     Longitude: 086 14W

WEATHER
 
SELECT A DAY
Number of Records: 222,618;   Date Range: 1/1/95 - 9/30/14
 
SHARE

PRINT THIS DATA

[ ← Previous Day ]
WEATHER ALMANAC - JANUARY 22, 2013
[ Next Day → ]
[ °C ]   °F
Weather ElementAverageHighLow
Temperature6.8 °F10.4 °F (8:40 pm)3 °F (1:55 am)
Dewpoint-0.8 °F3.2 °F (8:40 pm)-7.6 °F (5:07 am)
Humidity71.4 %85 % (12:45 am)56 % (5:07 am)
Barometer30.24 in30.33 in (11:55 pm)30.15 in (1:06 am)
Wind Speed10.1 mph16.1 mph (1:52 am)
Wind Gust21.9 mph (12:35 am)
Weather ElementAverage
Visibility1.5 mi
Wind DirectionWNW (288.2 °)

Weather ElementTotal
Precipitation0.20 in
Heating Degree Days58.3 (Base 65)
Averaged from 97 records on January 22, 2013
WEATHER CONDITIONS BREAKOUT
WIND DIRECTION BREAKOUT
WEATHER BY HOUR - JANUARY 22, 2013
[ °C ]   °F
Local TimeTemperatureDewpointHumidityBarometerVisibilityWind DirectionWind SpeedGust SpeedPrecipitationEventsConditions
12:15 AM3.2 °F-2.2 °F78 %30.17 in1.0 miNNW (330°)15.0 mphSnowLight Snow
12:35 AM3.2 °F-2.2 °F78 %30.17 in0.8 miNW (320°)11.5 mph21.9 mph0.00 inSnowLight Snow
12:45 AM3.2 °F-0.4 °F85 %30.16 in1.2 miNW (320°)9.2 mph0.00 inSnowLight Snow
12:55 AM3.9 °F-2.0 °F76 %30.21 in2.0 miNW (320°)11.5 mph0.00 inSnowLight Snow
1:06 AM5.0 °F-2.2 °F72 %30.15 in1.2 miNW (310°)13.8 mph20.7 mph0.00 inSnowLight Snow
1:35 AM3.2 °F-0.4 °F85 %30.16 in0.5 miNW (310°)13.8 mph19.6 mph0.00 inSnowSnow
1:52 AM3.2 °F-0.4 °F85 %30.17 in0.5 miNNW (330°)16.1 mph0.01 inSnowSnow
1:55 AM3.0 °F-2.0 °F80 %30.21 in0.5 miNNW (340°)15.0 mph0.01 inSnowSnow
2:07 AM3.2 °F-2.2 °F78 %30.16 in1.0 miNW (320°)10.4 mph0.00 inSnowLight Snow
2:18 AM3.2 °F-4.0 °F72 %30.16 in2.0 miNW (320°)15.0 mph19.6 mph0.00 inSnowLight Snow
2:28 AM3.2 °F-5.8 °F66 %30.16 in3.0 miNNW (330°)12.7 mph21.9 mph0.00 inSnowLight Snow
2:36 AM3.2 °F-2.2 °F78 %30.17 in2.0 miNNW (330°)10.4 mph0.00 inSnowLight Snow
2:55 AM3.9 °F-4.0 °F70 %30.22 in1.5 miNW (310°)12.7 mph20.7 mph0.00 inSnowLight Snow
3:42 AM3.2 °F-2.2 °F78 %30.19 in1.0 miNNW (330°)12.7 mph0.00 inSnowLight Snow
3:48 AM3.2 °F-2.2 °F78 %30.19 in2.0 miNNW (330°)11.5 mph0.00 inSnowLight Snow
3:55 AM5.0 °F-4.0 °F66 %30.24 in2.5 miNW (320°)12.7 mph20.7 mph0.00 inSnowLight Snow
4:03 AM3.2 °F-2.2 °F78 %30.19 in1.0 miNW (320°)13.8 mph20.7 mph0.00 inSnowLight Snow
4:22 AM5.0 °F-4.0 °F66 %30.19 in2.5 miNW (310°)11.5 mph21.9 mph0.01 inSnowLight Snow
4:32 AM5.0 °F-2.2 °F72 %30.19 in1.8 miWNW (300°)10.4 mph0.01 inSnowLight Snow
4:41 AM5.0 °F-5.8 °F61 %30.19 in2.5 miWNW (300°)12.7 mph21.9 mph0.01 inSnowLight Snow
4:55 AM5.0 °F-2.9 °F70 %30.25 in1.5 miNW (310°)9.2 mph20.7 mph0.01 inSnowLight Snow
5:00 AM5.0 °F-5.8 °F61 %30.19 in2.5 miWNW (300°)11.5 mph18.4 mph0.00 inSnowLight Snow
5:07 AM5.0 °F-7.6 °F56 %30.20 in8.0 miWNW (300°)11.5 mph0.00 inSnowLight Snow
5:22 AM5.0 °F-5.8 °F61 %30.20 in2.5 miWNW (300°)12.7 mph18.4 mph0.00 inSnowLight Snow
5:32 AM3.2 °F-4.0 °F72 %30.20 in2.0 miWNW (300°)10.4 mph0.00 inSnowLight Snow
5:35 AM3.2 °F-4.0 °F72 %30.20 in3.0 miWNW (300°)9.2 mph17.3 mph0.00 inSnowLight Snow
5:43 AM3.2 °F-5.8 °F66 %30.20 in3.0 miNW (310°)8.1 mph0.00 inSnowLight Snow
5:55 AM5.0 °F-5.1 °F63 %30.25 in4.0 miWNW (300°)13.8 mph20.7 mph0.00 inSnowLight Snow
6:00 AM5.0 °F-5.8 °F61 %30.20 in2.5 miWNW (300°)9.2 mph20.7 mph0.00 inSnowLight Snow
6:26 AM5.0 °F-4.0 °F66 %30.21 in3.0 miWNW (300°)12.7 mph20.7 mph0.00 inSnowLight Snow
6:30 AM5.0 °F-4.0 °F66 %30.21 in1.8 miWNW (290°)12.7 mph20.7 mph0.00 inSnowLight Snow
6:40 AM5.0 °F-5.8 °F61 %30.21 in3.0 miWNW (300°)12.7 mph19.6 mph0.00 inSnowLight Snow
6:49 AM5.0 °F-4.0 °F66 %30.21 in2.0 miWNW (300°)12.7 mph0.00 inSnowLight Snow
6:51 AM5.0 °F-4.0 °F66 %30.21 in1.5 miNW (310°)11.5 mph0.00 inSnowLight Snow
6:55 AM5.0 °F-2.9 °F70 %30.26 in0.8 miWNW (300°)11.5 mph0.00 inSnowLight Snow
7:32 AM5.0 °F-2.2 °F72 %30.22 in1.5 miWNW (300°)8.1 mph18.4 mph0.00 inSnowLight Snow
7:55 AM5.0 °F-4.0 °F66 %30.28 in1.5 miWNW (300°)6.9 mph18.4 mph0.00 inSnowLight Snow
8:42 AM5.0 °F-0.4 °F78 %30.24 in0.8 miNW (310°)8.1 mph0.00 inSnowLight Snow
8:48 AM5.0 °F-0.4 °F78 %30.24 in1.0 miNW (310°)6.9 mph0.01 inSnowLight Snow
8:55 AM6.1 °F-2.9 °F67 %30.29 in1.5 miWNW (300°)10.4 mph0.01 inSnowLight Snow
9:20 AM6.8 °F-2.2 °F67 %30.25 in0.8 miWNW (300°)13.8 mph19.6 mph0.00 inSnowLight Snow
9:40 AM6.8 °F-0.4 °F72 %30.25 in0.5 miWNW (300°)11.5 mph0.00 inSnowSnow
9:48 AM6.8 °F-0.4 °F72 %30.26 in1.0 miWNW (290°)8.1 mph20.7 mph0.00 inSnowLight Snow
9:55 AM6.1 °F-0.9 °F73 %30.31 in1.0 miWest (280°)15.0 mph19.6 mph0.00 inSnowLight Snow
10:47 AM6.8 °F-4.0 °F61 %30.27 in0.8 miNW (310°)10.4 mph0.00 inSnowLight Snow
10:55 AM7.0 °F-0.9 °F70 %30.32 in0.5 miWNW (290°)9.2 mph0.00 inSnowSnow
11:21 AM6.8 °F-2.2 °F67 %30.27 in1.2 miNW (310°)11.5 mph0.01 inSnowLight Snow
11:45 AM8.6 °F-0.4 °F67 %30.27 in0.8 miNW (320°)12.7 mph21.9 mph0.01 inSnowLight Snow
11:55 AM8.1 °F-0.9 °F67 %30.31 in0.8 miNW (320°)12.7 mph0.01 inSnowLight Snow
12:05 PM6.8 °F-0.4 °F72 %30.26 in0.2 miNW (310°)11.5 mph0.00 inSnowHeavy Snow
12:10 PM8.6 °F1.4 °F73 %30.26 in0.5 miNW (310°)10.4 mph0.00 inSnowSnow
12:38 PM8.6 °F-0.4 °F67 %30.25 in0.5 miWNW (300°)9.2 mph19.6 mph0.00 inSnowLight Snow
12:48 PM8.6 °F-0.4 °F67 %30.25 in1.0 miNW (320°)15.0 mph20.7 mph0.00 inSnowLight Snow
12:55 PM8.1 °F0.0 °F70 %30.30 in1.0 miWNW (300°)11.5 mph20.7 mph0.00 inSnowLight Snow
1:03 PM8.6 °F1.4 °F73 %30.25 in0.5 miNW (320°)13.8 mph0.00 inSnowSnow
1:16 PM8.6 °F1.4 °F73 %30.25 in0.2 miNW (310°)9.2 mph18.4 mph0.00 inSnowHeavy Snow
1:25 PM8.6 °F1.4 °F73 %30.25 in0.5 miNW (310°)6.9 mph0.00 inSnowSnow
1:33 PM8.6 °F-0.4 °F67 %30.25 in0.5 miNW (310°)10.4 mph18.4 mph0.00 inSnowSnow
1:42 PM8.6 °F1.4 °F73 %30.25 in0.5 miNW (310°)9.2 mph16.1 mph0.00 inSnowSnow
1:50 PM8.6 °F-0.4 °F67 %30.25 in0.5 miWNW (300°)11.5 mph0.00 inSnowSnow
1:52 PM8.6 °F-0.4 °F67 %30.25 in0.5 miNW (310°)12.7 mph18.4 mph0.00 inSnowSnow
1:55 PM8.1 °F1.0 °F73 %30.30 in0.2 miWNW (300°)9.2 mph18.4 mph0.00 inSnowHeavy Snow
2:06 PM8.6 °F1.4 °F73 %30.25 in0.5 miWNW (290°)10.4 mph0.01 inSnowLight Snow
2:14 PM8.6 °F-0.4 °F67 %30.24 in0.5 miNW (310°)11.5 mph19.6 mph0.01 inSnowLight Snow
2:38 PM8.6 °F-0.4 °F67 %30.25 in0.5 miWest (280°)10.4 mph0.01 inSnowLight Snow
2:55 PM8.1 °F1.0 °F73 %30.29 in0.2 miNW (310°)10.4 mph17.3 mph0.01 inSnowHeavy Snow
3:01 PM8.6 °F1.4 °F73 %30.24 in0.5 miWNW (300°)9.2 mph0.00 inSnowSnow
3:33 PM8.6 °F1.4 °F73 %30.25 in0.5 miNW (320°)8.1 mph0.00 inSnowLight Snow
3:38 PM8.6 °F1.4 °F73 %30.25 in0.5 miWNW (290°)10.4 mph0.00 inSnowLight Snow
3:55 PM9.0 °F-0.9 °F64 %30.30 in0.5 miWNW (290°)10.4 mph0.00 inSnowLight Snow
4:01 PM8.6 °F-2.2 °F62 %30.25 in2.0 miWNW (300°)11.5 mph18.4 mph0.00 inSnowLight Snow
4:30 PM8.6 °F-0.4 °F67 %30.25 in0.8 miWNW (300°)11.5 mph0.00 inSnowLight Snow
4:55 PM9.0 °F0.0 °F67 %30.30 in0.8 miNW (310°)10.4 mph0.00 inSnowLight Snow
5:52 PM8.6 °F1.4 °F73 %30.26 in1.0 miNW (320°)8.1 mph0.00 inSnowLight Snow
5:55 PM9.0 °F1.9 °F73 %30.31 in1.0 miWNW (290°)6.9 mph0.00 inSnowLight Snow
6:55 PM10.0 °F3.0 °F73 %30.30 in1.5 miWNW (290°)6.9 mph0.00 inSnowLight Snow
7:55 PM10.0 °F1.9 °F70 %30.30 in1.5 miWNW (300°)9.2 mph0.00 inSnowLight Snow
8:40 PM10.4 °F3.2 °F73 %30.25 in2.5 miNorth (360°)5.8 mph0.00 inSnowLight Snow
8:55 PM10.0 °F3.0 °F73 %30.30 in2.5 miNNW (340°)6.9 mph0.00 inSnowLight Snow
9:01 PM10.4 °F3.2 °F73 %30.26 in2.5 miNorth (350°)4.6 mph0.00 inSnowLight Snow
9:11 PM10.4 °F3.2 °F73 %30.25 in2.5 miNorth (360°)5.8 mph0.00 inSnowLight Snow
9:18 PM10.4 °F3.2 °F73 %30.25 in6.0 miNorth (360°)6.9 mph0.00 inSnowLight Snow
9:34 PM10.4 °F3.2 °F73 %30.25 in1.0 miNNW (340°)10.4 mph0.00 inSnowLight Snow
9:43 PM8.6 °F3.2 °F79 %30.25 in1.0 miNorth (350°)8.1 mph0.00 inSnowLight Snow
9:47 PM8.6 °F3.2 °F79 %30.25 in1.0 miNorth (350°)9.2 mph0.00 inSnowLight Snow
9:51 PM8.6 °F3.2 °F79 %30.25 in1.0 miNNW (340°)9.2 mph0.00 inSnowLight Snow
9:55 PM9.0 °F3.0 °F77 %30.30 in1.0 miNNW (340°)10.4 mph0.00 inSnowLight Snow
10:08 PM8.6 °F3.2 °F79 %30.26 in2.0 miNorth (350°)6.9 mph0.00 inSnowLight Snow
10:35 PM8.6 °F3.2 °F79 %30.26 in2.0 miNorth (10°)6.9 mph0.00 inSnowLight Snow
10:37 PM8.6 °F3.2 °F79 %30.26 in0.8 miNorth (10°)5.8 mph0.00 inSnowLight Snow
10:45 PM8.6 °F3.2 °F79 %30.27 in1.0 miNNE (20°)4.6 mph0.00 inSnowLight Snow
10:55 PM9.0 °F3.0 °F77 %30.32 in1.5 miNorth (10°)5.8 mph0.00 inSnowLight Snow
11:14 PM8.6 °F1.4 °F73 %30.28 in1.8 miNNE (20°)8.1 mph0.01 inSnowLight Snow
11:23 PM8.6 °F1.4 °F73 %30.28 in2.5 miNorth (10°)4.6 mph0.01 inSnowLight Snow
11:33 PM8.6 °F1.4 °F73 %30.28 in6.0 miNorth (360°)3.5 mph0.01 inSnowLight Snow
11:46 PM8.6 °F1.4 °F73 %30.28 in1.8 miNorth (10°)3.5 mph0.01 inSnowLight Snow
11:55 PM8.1 °F1.0 °F73 %30.33 in2.0 miCalm0.01 inSnowLight Snow
Hourly data recorded from KMKG, located miles away from Muskegon, Michigan







STORIES FROM OUR PARTNERS